owner,sensor,date,latitude,longitude,vertical_datum,wind_speed,wind_to_direction,wind_speed_of_gust,qcFlag 
TCOON,ioos:station:TCOON:031:1,2010-08-01T00:00:00Z,28.4073,-96.7122,0.0,4.1,150.0,4.1,'1111122,1111122,1111122' 
TCOON,ioos:station:TCOON:031:1,2010-08-01T01:00:00Z,28.4073,-96.7122,0.0,6.7,140.0,7.7,'1111122,1111122,1111122' 
TCOON,ioos:station:TCOON:031:1,2010-08-01T03:00:00Z,28.4073,-96.7122,0.0,6.2,140.0,6.7,'1111122,1111122,1111122' 
TCOON,ioos:station:TCOON:031:1,2010-08-01T04:00:00Z,28.4073,-96.7122,0.0,4.6,121.0,6.5,'11111222,11111222,11111222' 
TCOON,ioos:station:TCOON:031:1,2010-08-01T05:00:00Z,28.4073,-96.7122,0.0,6.2,149.0,7.7,'11111222,11111222,11111222' 
TCOON,ioos:station:TCOON:031:1,2010-08-01T07:00:00Z,28.4073,-96.7122,0.0,6.6,168.0,7.5,'11111222,11111222,11111222' 
TCOON,ioos:station:TCOON:031:1,2010-08-01T08:00:00Z,28.4073,-96.7122,0.0,4.3,214.0,6.4,'11111222,11111222,11111222' 
TCOON,ioos:station:TCOON:031:1,2010-08-01T09:00:00Z,28.4073,-96.7122,0.0,4.4,198.0,6.0,'11111222,11111222,11111222' 
TCOON,ioos:station:TCOON:031:1,2010-08-01T10:00:00Z,28.4073,-96.7122,0.0,3.1,210.0,4.6,'1111122,1111122,1111122' 
TCOON,ioos:station:TCOON:031:1,2010-08-01T11:00:00Z,28.4073,-96.7122,0.0,4.4,210.0,5.5,'11111222,11111222,11111222' 
TCOON,ioos:station:TCOON:031:1,2010-08-01T12:00:00Z,28.4073,-96.7122,0.0,4.4,223.0,4.9,'11111222,11111222,11111222' 
TCOON,ioos:station:TCOON:031:1,2010-08-01T13:00:00Z,28.4073,-96.7122,0.0,2.2,277.0,3.6,'11111222,11111222,11111222' 
TCOON,ioos:station:TCOON:031:1,2010-08-01T14:00:00Z,28.4073,-96.7122,0.0,3.6,240.0,4.6,'1111122,1111122,1111122' 
TCOON,ioos:station:TCOON:031:1,2010-08-01T15:00:00Z,28.4073,-96.7122,0.0,4.6,220.0,5.1,'1111122,1111122,1111122' 
TCOON,ioos:station:TCOON:031:1,2010-08-01T16:00:00Z,28.4073,-96.7122,0.0,2.6,230.0,3.1,'1111122,1111122,1111122' 
TCOON,ioos:station:TCOON:031:1,2010-08-01T18:00:00Z,28.4073,-96.7122,0.0,3.1,160.0,3.1,'1111122,1111122,1111122' 
TCOON,ioos:station:TCOON:031:1,2010-08-01T19:00:00Z,28.4073,-96.7122,0.0,4.1,140.0,5.1,'1111122,1111122,1111122' 
TCOON,ioos:station:TCOON:031:1,2010-08-01T20:00:00Z,28.4073,-96.7122,0.0,5.5,140.0,6.2,'11111222,11111222,11111222' 
TCOON,ioos:station:TCOON:031:1,2010-08-01T21:00:00Z,28.4073,-96.7122,0.0,5.5,136.0,6.4,'11111222,11111222,11111222' 
TCOON,ioos:station:TCOON:031:1,2010-08-01T22:00:00Z,28.4073,-96.7122,0.0,4.6,146.0,5.4,'11111222,11111222,11111222' 
TCOON,ioos:station:TCOON:031:1,2010-08-01T23:00:00Z,28.4073,-96.7122,0.0,4.7,146.0,5.2,'11111222,11111222,11111222' 
TCOON,ioos:station:TCOON:031:1,2010-08-02T00:00:00Z,28.4073,-96.7122,0.0,4.2,145.0,4.8,'11111222,11111222,11111222' 
TCOON,ioos:station:TCOON:031:1,2010-08-02T01:00:00Z,28.4073,-96.7122,0.0,3.6,150.0,4.6,'1111122,1111122,1111122' 
TCOON,ioos:station:TCOON:031:1,2010-08-02T02:00:00Z,28.4073,-96.7122,0.0,3.0,128.0,3.3,'11111222,11111222,11111222' 
TCOON,ioos:station:TCOON:031:1,2010-08-02T03:00:00Z,28.4073,-96.7122,0.0,2.8,118.0,3.2,'11111222,11111222,11111222' 
TCOON,ioos:station:TCOON:031:1,2010-08-02T04:00:00Z,28.4073,-96.7122,0.0,2.1,99.0,2.9,'11111222,11111222,11111222' 
TCOON,ioos:station:TCOON:031:1,2010-08-02T05:00:00Z,28.4073,-96.7122,0.0,2.9,114.0,3.4,'11111222,11111222,11111222' 
TCOON,ioos:station:TCOON:031:1,2010-08-02T06:00:00Z,28.4073,-96.7122,0.0,2.8,123.0,4.4,'11111222,11111222,11111222' 
TCOON,ioos:station:TCOON:031:1,2010-08-02T07:00:00Z,28.4073,-96.7122,0.0,4.5,158.0,5.2,'11111222,11111222,11111222' 
TCOON,ioos:station:TCOON:031:1,2010-08-02T08:00:00Z,28.4073,-96.7122,0.0,5.3,153.0,5.6,'11111222,11111222,11111222' 
TCOON,ioos:station:TCOON:031:1,2010-08-02T09:00:00Z,28.4073,-96.7122,0.0,4.6,163.0,5.5,'11111222,11111222,11111222' 
TCOON,ioos:station:TCOON:031:1,2010-08-02T10:00:00Z,28.4073,-96.7122,0.0,3.9,155.0,4.3,'11111222,11111222,11111222' 
TCOON,ioos:station:TCOON:031:1,2010-08-02T11:00:00Z,28.4073,-96.7122,0.0,4.1,199.0,4.8,'11111222,11111222,11111222' 
TCOON,ioos:station:TCOON:031:1,2010-08-02T12:00:00Z,28.4073,-96.7122,0.0,3.6,197.0,4.3,'11111222,11111222,11111222' 
TCOON,ioos:station:TCOON:031:1,2010-08-02T13:00:00Z,28.4073,-96.7122,0.0,3.0,263.0,3.4,'11111222,11111222,11111222' 
TCOON,ioos:station:TCOON:031:1,2010-08-02T14:00:00Z,28.4073,-96.7122,0.0,2.8,249.0,3.4,'11111222,11111222,11111222' 
TCOON,ioos:station:TCOON:031:1,2010-08-02T15:00:00Z,28.4073,-96.7122,0.0,2.6,235.0,3.5,'11111222,11111222,11111222' 
TCOON,ioos:station:TCOON:031:1,2010-08-02T16:00:00Z,28.4073,-96.7122,0.0,1.3,217.0,2.2,'11111222,11111222,11111222' 
TCOON,ioos:station:TCOON:031:1,2010-08-02T17:00:00Z,28.4073,-96.7122,0.0,1.1,147.0,1.4,'11111222,11111222,11111222' 
TCOON,ioos:station:TCOON:031:1,2010-08-02T18:00:00Z,28.4073,-96.7122,0.0,1.8,172.0,2.6,'11111222,11111222,11111222' 
TCOON,ioos:station:TCOON:031:1,2010-08-02T19:00:00Z,28.4073,-96.7122,0.0,3.7,186.0,4.8,'11111222,11111222,11111222' 
TCOON,ioos:station:TCOON:031:1,2010-08-02T20:00:00Z,28.4073,-96.7122,0.0,5.1,157.0,6.1,'11111222,11111222,11111222' 
TCOON,ioos:station:TCOON:031:1,2010-08-02T21:00:00Z,28.4073,-96.7122,0.0,3.9,121.0,4.8,'11111222,11111222,11111222' 
TCOON,ioos:station:TCOON:031:1,2010-08-02T22:00:00Z,28.4073,-96.7122,0.0,4.1,123.0,7.0,'11111222,11111222,11111222' 
TCOON,ioos:station:TCOON:031:1,2010-08-02T23:00:00Z,28.4073,-96.7122,0.0,4.6,130.0,5.1,'1111122,1111122,1111122' 
TCOON,ioos:station:TCOON:031:1,2010-08-03T00:00:00Z,28.4073,-96.7122,0.0,3.6,130.0,5.7,'1111122,1111122,1111122' 
TCOON,ioos:station:TCOON:031:1,2010-08-03T01:00:00Z,28.4073,-96.7122,0.0,4.1,120.0,5.1,'1111122,1111122,1111122' 
TCOON,ioos:station:TCOON:031:1,2010-08-03T02:00:00Z,28.4073,-96.7122,0.0,3.1,120.0,4.1,'1111122,1111122,1111122' 
TCOON,ioos:station:TCOON:031:1,2010-08-03T03:00:00Z,28.4073,-96.7122,0.0,3.2,118.0,4.1,'11111222,11111222,11111222' 
TCOON,ioos:station:TCOON:031:1,2010-08-03T04:00:00Z,28.4073,-96.7122,0.0,3.1,120.0,4.1,'1111122,1111122,1111122' 
TCOON,ioos:station:TCOON:031:1,2010-08-03T05:00:00Z,28.4073,-96.7122,0.0,3.3,120.0,4.3,'11111222,11111222,11111222' 
TCOON,ioos:station:TCOON:031:1,2010-08-03T06:00:00Z,28.4073,-96.7122,0.0,4.8,124.0,6.9,'11111222,11111222,11111222' 
TCOON,ioos:station:TCOON:031:1,2010-08-03T07:00:00Z,28.4073,-96.7122,0.0,4.8,138.0,5.7,'11111222,11111222,11111222' 
TCOON,ioos:station:TCOON:031:1,2010-08-03T08:00:00Z,28.4073,-96.7122,0.0,4.8,138.0,5.3,'11111222,11111222,11111222' 
TCOON,ioos:station:TCOON:031:1,2010-08-03T09:00:00Z,28.4073,-96.7122,0.0,3.9,158.0,4.7,'11111222,11111222,11111222' 
TCOON,ioos:station:TCOON:031:1,2010-08-03T10:00:00Z,28.4073,-96.7122,0.0,1.1,80.0,1.8,'11111222,11111222,11111222' 
TCOON,ioos:station:TCOON:031:1,2010-08-03T11:00:00Z,28.4073,-96.7122,0.0,1.2,358.0,1.7,'11111222,11111222,11111222' 
TCOON,ioos:station:TCOON:031:1,2010-08-03T12:00:00Z,28.4073,-96.7122,0.0,1.2,26.0,1.5,'11111222,11111222,11111222' 
TCOON,ioos:station:TCOON:031:1,2010-08-03T13:00:00Z,28.4073,-96.7122,0.0,1.7,6.0,2.2,'11111222,11111222,11111222' 
TCOON,ioos:station:TCOON:031:1,2010-08-03T14:00:00Z,28.4073,-96.7122,0.0,0.8,351.0,1.7,'11111222,11111222,11111222' 
TCOON,ioos:station:TCOON:031:1,2010-08-03T15:00:00Z,28.4073,-96.7122,0.0,1.2,193.0,1.6,'11111222,11111222,11111222' 
TCOON,ioos:station:TCOON:031:1,2010-08-03T16:00:00Z,28.4073,-96.7122,0.0,0.3,193.0,0.8,'11111222,11111222,11111222' 
TCOON,ioos:station:TCOON:031:1,2010-08-03T17:00:00Z,28.4073,-96.7122,0.0,1.5,170.0,4.1,'1111122,1111122,1111122' 
TCOON,ioos:station:TCOON:031:1,2010-08-03T18:00:00Z,28.4073,-96.7122,0.0,1.0,140.0,2.1,'1111122,1111122,1111122' 
TCOON,ioos:station:TCOON:031:1,2010-08-03T19:00:00Z,28.4073,-96.7122,0.0,4.3,99.0,4.9,'11111222,11111222,11111222' 
TCOON,ioos:station:TCOON:031:1,2010-08-03T20:00:00Z,28.4073,-96.7122,0.0,5.7,110.0,7.7,'1111122,1111122,1111122' 
TCOON,ioos:station:TCOON:031:1,2010-08-03T21:00:00Z,28.4073,-96.7122,0.0,5.7,110.0,7.2,'1111122,1111122,1111122' 
TCOON,ioos:station:TCOON:031:1,2010-08-03T22:00:00Z,28.4073,-96.7122,0.0,5.1,100.0,6.7,'1111122,1111122,1111122' 
TCOON,ioos:station:TCOON:031:1,2010-08-03T23:00:00Z,28.4073,-96.7122,0.0,5.3,101.0,6.4,'11111222,11111222,11111222' 
TCOON,ioos:station:TCOON:031:1,2010-08-04T00:00:00Z,28.4073,-96.7122,0.0,4.6,110.0,5.7,'1111122,1111122,1111122' 
TCOON,ioos:station:TCOON:031:1,2010-08-04T01:00:00Z,28.4073,-96.7122,0.0,3.4,108.0,4.6,'11111222,11111222,11111222' 
TCOON,ioos:station:TCOON:031:1,2010-08-04T02:00:00Z,28.4073,-96.7122,0.0,3.5,112.0,4.3,'11111222,11111222,11111222' 
TCOON,ioos:station:TCOON:031:1,2010-08-04T03:00:00Z,28.4073,-96.7122,0.0,2.9,108.0,3.5,'11111222,11111222,11111222' 
TCOON,ioos:station:TCOON:031:1,2010-08-04T04:00:00Z,28.4073,-96.7122,0.0,3.1,114.0,3.5,'11111222,11111222,11111222' 
TCOON,ioos:station:TCOON:031:1,2010-08-04T05:00:00Z,28.4073,-96.7122,0.0,2.1,110.0,3.1,'1111122,1111122,1111122' 
TCOON,ioos:station:TCOON:031:1,2010-08-04T06:00:00Z,28.4073,-96.7122,0.0,2.4,126.0,2.9,'11111222,11111222,11111222' 
TCOON,ioos:station:TCOON:031:1,2010-08-04T07:00:00Z,28.4073,-96.7122,0.0,3.6,113.0,4.3,'11111222,11111222,11111222' 
TCOON,ioos:station:TCOON:031:1,2010-08-04T08:00:00Z,28.4073,-96.7122,0.0,4.4,135.0,5.5,'11111222,11111222,11111222' 
TCOON,ioos:station:TCOON:031:1,2010-08-04T09:00:00Z,28.4073,-96.7122,0.0,6.5,141.0,6.9,'11111222,11111222,11111222' 
TCOON,ioos:station:TCOON:031:1,2010-08-04T10:00:00Z,28.4073,-96.7122,0.0,5.1,165.0,6.4,'11111222,11111222,11111222' 
TCOON,ioos:station:TCOON:031:1,2010-08-04T11:00:00Z,28.4073,-96.7122,0.0,4.4,177.0,5.2,'11111222,11111222,11111222' 
TCOON,ioos:station:TCOON:031:1,2010-08-04T12:00:00Z,28.4073,-96.7122,0.0,2.3,204.0,3.0,'11111222,11111222,11111222' 
TCOON,ioos:station:TCOON:031:1,2010-08-04T13:00:00Z,28.4073,-96.7122,0.0,3.6,190.0,4.6,'1111122,1111122,1111122' 
TCOON,ioos:station:TCOON:031:1,2010-08-04T14:00:00Z,28.4073,-96.7122,0.0,1.6,228.0,2.9,'11111222,11111222,11111222' 
TCOON,ioos:station:TCOON:031:1,2010-08-04T15:00:00Z,28.4073,-96.7122,0.0,0.4,224.0,1.6,'11111222,11111222,11111222' 
TCOON,ioos:station:TCOON:031:1,2010-08-04T16:00:00Z,28.4073,-96.7122,0.0,1.9,224.0,2.1,'11111222,11111222,11111222' 
TCOON,ioos:station:TCOON:031:1,2010-08-04T17:00:00Z,28.4073,-96.7122,0.0,1.5,179.0,2.3,'11111222,11111222,11111222' 
TCOON,ioos:station:TCOON:031:1,2010-08-04T18:00:00Z,28.4073,-96.7122,0.0,4.0,173.0,4.3,'11111222,11111222,11111222' 
TCOON,ioos:station:TCOON:031:1,2010-08-04T19:00:00Z,28.4073,-96.7122,0.0,4.8,163.0,5.6,'11111222,11111222,11111222' 
TCOON,ioos:station:TCOON:031:1,2010-08-04T20:00:00Z,28.4073,-96.7122,0.0,6.3,158.0,7.3,'11111222,11111222,11111222' 
TCOON,ioos:station:TCOON:031:1,2010-08-04T21:00:00Z,28.4073,-96.7122,0.0,5.1,150.0,7.2,'1111122,1111122,1111122' 
TCOON,ioos:station:TCOON:031:1,2010-08-04T22:00:00Z,28.4073,-96.7122,0.0,5.7,150.0,7.2,'1111122,1111122,1111122' 
TCOON,ioos:station:TCOON:031:1,2010-08-04T23:00:00Z,28.4073,-96.7122,0.0,5.1,150.0,6.2,'1111122,1111122,1111122' 
TCOON,ioos:station:TCOON:031:1,2010-08-05T00:00:00Z,28.4073,-96.7122,0.0,6.2,140.0,7.2,'1111122,1111122,1111122' 
TCOON,ioos:station:TCOON:031:1,2010-08-05T01:00:00Z,28.4073,-96.7122,0.0,6.2,150.0,7.2,'1111122,1111122,1111122' 
TCOON,ioos:station:TCOON:031:1,2010-08-05T02:00:00Z,28.4073,-96.7122,0.0,4.9,130.0,6.2,'11111222,11111222,11111222' 
TCOON,ioos:station:TCOON:031:1,2010-08-05T03:00:00Z,28.4073,-96.7122,0.0,4.9,133.0,6.4,'11111222,11111222,11111222' 
TCOON,ioos:station:TCOON:031:1,2010-08-05T04:00:00Z,28.4073,-96.7122,0.0,5.7,130.0,6.7,'1111122,1111122,1111122' 
TCOON,ioos:station:TCOON:031:1,2010-08-05T05:00:00Z,28.4073,-96.7122,0.0,4.6,140.0,5.5,'11111222,11111222,11111222' 
TCOON,ioos:station:TCOON:031:1,2010-08-05T06:00:00Z,28.4073,-96.7122,0.0,6.2,150.0,6.7,'1111122,1111122,1111122' 
TCOON,ioos:station:TCOON:031:1,2010-08-05T07:00:00Z,28.4073,-96.7122,0.0,4.1,150.0,5.7,'1111122,1111122,1111122' 
TCOON,ioos:station:TCOON:031:1,2010-08-05T08:00:00Z,28.4073,-96.7122,0.0,5.1,155.0,5.6,'11111222,11111222,11111222' 
TCOON,ioos:station:TCOON:031:1,2010-08-05T09:00:00Z,28.4073,-96.7122,0.0,4.6,180.0,5.7,'1111122,1111122,1111122' 
TCOON,ioos:station:TCOON:031:1,2010-08-05T10:00:00Z,28.4073,-96.7122,0.0,5.1,200.0,5.7,'1111122,1111122,1111122' 
TCOON,ioos:station:TCOON:031:1,2010-08-05T11:00:00Z,28.4073,-96.7122,0.0,2.6,220.0,3.6,'1111122,1111122,1111122' 
TCOON,ioos:station:TCOON:031:1,2010-08-05T12:00:00Z,28.4073,-96.7122,0.0,2.0,298.0,2.4,'11111222,11111222,11111222' 
TCOON,ioos:station:TCOON:031:1,2010-08-05T13:00:00Z,28.4073,-96.7122,0.0,1.8,357.0,2.2,'11111222,11111222,11111222' 
TCOON,ioos:station:TCOON:031:1,2010-08-05T14:00:00Z,28.4073,-96.7122,0.0,1.0,350.0,2.6,'11111222,11111222,11111222' 
TCOON,ioos:station:TCOON:031:1,2010-08-05T15:00:00Z,28.4073,-96.7122,0.0,1.2,192.0,2.2,'11111222,11111222,11111222' 
TCOON,ioos:station:TCOON:031:1,2010-08-05T16:00:00Z,28.4073,-96.7122,0.0,1.8,161.0,2.0,'11111222,11111222,11111222' 
TCOON,ioos:station:TCOON:031:1,2010-08-05T17:00:00Z,28.4073,-96.7122,0.0,3.5,167.0,3.8,'11111222,11111222,11111222' 
TCOON,ioos:station:TCOON:031:1,2010-08-05T18:00:00Z,28.4073,-96.7122,0.0,4.6,150.0,5.1,'1111122,1111122,1111122' 
TCOON,ioos:station:TCOON:031:1,2010-08-05T19:00:00Z,28.4073,-96.7122,0.0,5.1,150.0,5.7,'1111122,1111122,1111122' 
TCOON,ioos:station:TCOON:031:1,2010-08-05T20:00:00Z,28.4073,-96.7122,0.0,6.4,150.0,7.4,'11111222,11111222,11111222' 
TCOON,ioos:station:TCOON:031:1,2010-08-05T21:00:00Z,28.4073,-96.7122,0.0,6.2,150.0,7.2,'1111122,1111122,1111122' 
TCOON,ioos:station:TCOON:031:1,2010-08-05T22:00:00Z,28.4073,-96.7122,0.0,6.4,142.0,7.2,'11111222,11111222,11111222' 
TCOON,ioos:station:TCOON:031:1,2010-08-05T23:00:00Z,28.4073,-96.7122,0.0,5.7,140.0,6.2,'1111122,1111122,1111122' 
TCOON,ioos:station:TCOON:031:1,2010-08-06T00:00:00Z,28.4073,-96.7122,0.0,5.7,150.0,6.7,'1111122,1111122,1111122' 
TCOON,ioos:station:TCOON:031:1,2010-08-06T01:00:00Z,28.4073,-96.7122,0.0,4.4,122.0,5.5,'11111222,11111222,11111222' 
TCOON,ioos:station:TCOON:031:1,2010-08-06T02:00:00Z,28.4073,-96.7122,0.0,3.6,110.0,4.1,'1111122,1111122,1111122' 
TCOON,ioos:station:TCOON:031:1,2010-08-06T03:00:00Z,28.4073,-96.7122,0.0,3.8,112.0,4.6,'11111222,11111222,11111222' 
TCOON,ioos:station:TCOON:031:1,2010-08-06T04:00:00Z,28.4073,-96.7122,0.0,6.1,134.0,6.7,'11111222,11111222,11111222' 
TCOON,ioos:station:TCOON:031:1,2010-08-06T05:00:00Z,28.4073,-96.7122,0.0,5.2,124.0,6.6,'11111222,11111222,11111222' 
TCOON,ioos:station:TCOON:031:1,2010-08-06T06:00:00Z,28.4073,-96.7122,0.0,6.4,139.0,7.2,'11111222,11111222,11111222' 
TCOON,ioos:station:TCOON:031:1,2010-08-06T07:00:00Z,28.4073,-96.7122,0.0,6.6,153.0,8.0,'11111222,11111222,11111222' 
TCOON,ioos:station:TCOON:031:1,2010-08-06T09:00:00Z,28.4073,-96.7122,0.0,7.0,154.0,7.9,'11111222,11111222,11111222' 
TCOON,ioos:station:TCOON:031:1,2010-08-06T10:00:00Z,28.4073,-96.7122,0.0,6.9,163.0,7.9,'11111222,11111222,11111222' 
TCOON,ioos:station:TCOON:031:1,2010-08-06T11:00:00Z,28.4073,-96.7122,0.0,4.9,198.0,5.6,'11111222,11111222,11111222' 
TCOON,ioos:station:TCOON:031:1,2010-08-06T12:00:00Z,28.4073,-96.7122,0.0,4.6,200.0,5.7,'1111122,1111122,1111122' 
TCOON,ioos:station:TCOON:031:1,2010-08-06T13:00:00Z,28.4073,-96.7122,0.0,4.6,190.0,5.1,'1111122,1111122,1111122' 
TCOON,ioos:station:TCOON:031:1,2010-08-06T14:00:00Z,28.4073,-96.7122,0.0,2.6,230.0,3.1,'1111122,1111122,1111122' 
TCOON,ioos:station:TCOON:031:1,2010-08-06T15:00:00Z,28.4073,-96.7122,0.0,2.6,230.0,3.1,'1111122,1111122,1111122' 
TCOON,ioos:station:TCOON:031:1,2010-08-06T16:00:00Z,28.4073,-96.7122,0.0,1.9,172.0,2.3,'11111222,11111222,11111222' 
TCOON,ioos:station:TCOON:031:1,2010-08-06T17:00:00Z,28.4073,-96.7122,0.0,2.9,170.0,3.8,'11111222,11111222,11111222' 
TCOON,ioos:station:TCOON:031:1,2010-08-06T18:00:00Z,28.4073,-96.7122,0.0,3.6,190.0,4.6,'1111122,1111122,1111122' 
TCOON,ioos:station:TCOON:031:1,2010-08-06T19:00:00Z,28.4073,-96.7122,0.0,3.1,180.0,3.6,'1111122,1111122,1111122' 
TCOON,ioos:station:TCOON:031:1,2010-08-06T20:00:00Z,28.4073,-96.7122,0.0,4.1,150.0,5.1,'1111122,1111122,1111122' 
TCOON,ioos:station:TCOON:031:1,2010-08-06T21:00:00Z,28.4073,-96.7122,0.0,6.3,143.0,7.1,'11111222,11111222,11111222' 
TCOON,ioos:station:TCOON:031:1,2010-08-06T22:00:00Z,28.4073,-96.7122,0.0,5.1,140.0,6.2,'1111122,1111122,1111122' 
TCOON,ioos:station:TCOON:031:1,2010-08-06T23:00:00Z,28.4073,-96.7122,0.0,4.6,150.0,5.1,'1111122,1111122,1111122' 
TCOON,ioos:station:TCOON:031:1,2010-08-07T00:00:00Z,28.4073,-96.7122,0.0,5.1,140.0,5.6,'11111222,11111222,11111222' 
TCOON,ioos:station:TCOON:031:1,2010-08-07T01:00:00Z,28.4073,-96.7122,0.0,3.6,115.0,5.9,'11111222,11111222,11111222' 
TCOON,ioos:station:TCOON:031:1,2010-08-07T02:00:00Z,28.4073,-96.7122,0.0,3.3,110.0,5.1,'11111222,11111222,11111222' 
TCOON,ioos:station:TCOON:031:1,2010-08-07T03:00:00Z,28.4073,-96.7122,0.0,3.6,109.0,4.3,'11111222,11111222,11111222' 
TCOON,ioos:station:TCOON:031:1,2010-08-07T04:00:00Z,28.4073,-96.7122,0.0,4.0,113.0,4.9,'11111222,11111222,11111222' 
TCOON,ioos:station:TCOON:031:1,2010-08-07T05:00:00Z,28.4073,-96.7122,0.0,4.1,120.0,4.6,'11111222,11111222,11111222' 
TCOON,ioos:station:TCOON:031:1,2010-08-07T06:00:00Z,28.4073,-96.7122,0.0,4.8,126.0,6.1,'11111222,11111222,11111222' 
TCOON,ioos:station:TCOON:031:1,2010-08-07T07:00:00Z,28.4073,-96.7122,0.0,7.8,136.0,8.5,'11111222,11111222,11111222' 
TCOON,ioos:station:TCOON:031:1,2010-08-07T08:00:00Z,28.4073,-96.7122,0.0,7.8,153.0,9.1,'11111222,11111222,11111222' 
TCOON,ioos:station:TCOON:031:1,2010-08-07T09:00:00Z,28.4073,-96.7122,0.0,7.4,157.0,8.5,'11111222,11111222,11111222' 
TCOON,ioos:station:TCOON:031:1,2010-08-07T10:00:00Z,28.4073,-96.7122,0.0,6.9,155.0,8.5,'11111222,11111222,11111222' 
TCOON,ioos:station:TCOON:031:1,2010-08-07T11:00:00Z,28.4073,-96.7122,0.0,7.0,157.0,8.3,'11111222,11111222,11111222' 
TCOON,ioos:station:TCOON:031:1,2010-08-07T12:00:00Z,28.4073,-96.7122,0.0,6.1,175.0,7.3,'11111222,11111222,11111222' 
TCOON,ioos:station:TCOON:031:1,2010-08-07T13:00:00Z,28.4073,-96.7122,0.0,4.8,197.0,5.1,'11111222,11111222,11111222' 
TCOON,ioos:station:TCOON:031:1,2010-08-07T14:00:00Z,28.4073,-96.7122,0.0,3.6,210.0,4.1,'1111122,1111122,1111122' 
TCOON,ioos:station:TCOON:031:1,2010-08-07T15:00:00Z,28.4073,-96.7122,0.0,2.1,210.0,3.1,'1111122,1111122,1111122' 
TCOON,ioos:station:TCOON:031:1,2010-08-07T16:00:00Z,28.4073,-96.7122,0.0,2.4,202.0,2.7,'11111222,11111222,11111222' 
TCOON,ioos:station:TCOON:031:1,2010-08-07T17:00:00Z,28.4073,-96.7122,0.0,2.6,179.0,3.0,'11111222,11111222,11111222' 
TCOON,ioos:station:TCOON:031:1,2010-08-07T18:00:00Z,28.4073,-96.7122,0.0,4.3,150.0,4.8,'11111222,11111222,11111222' 
TCOON,ioos:station:TCOON:031:1,2010-08-07T19:00:00Z,28.4073,-96.7122,0.0,7.2,150.0,7.7,'1111122,1111122,1111122' 
TCOON,ioos:station:TCOON:031:1,2010-08-07T20:00:00Z,28.4073,-96.7122,0.0,5.4,147.0,6.2,'11111222,11111222,11111222' 
TCOON,ioos:station:TCOON:031:1,2010-08-07T21:00:00Z,28.4073,-96.7122,0.0,6.7,140.0,7.7,'1111122,1111122,1111122' 
TCOON,ioos:station:TCOON:031:1,2010-08-07T22:00:00Z,28.4073,-96.7122,0.0,5.7,140.0,6.7,'1111122,1111122,1111122' 
TCOON,ioos:station:TCOON:031:1,2010-08-07T23:00:00Z,28.4073,-96.7122,0.0,5.4,132.0,5.8,'11111222,11111222,11111222' 
TCOON,ioos:station:TCOON:031:1,2010-08-08T00:00:00Z,28.4073,-96.7122,0.0,5.5,103.0,6.7,'11111222,11111222,11111222' 
TCOON,ioos:station:TCOON:031:1,2010-08-08T01:00:00Z,28.4073,-96.7122,0.0,5.4,116.0,7.1,'11111222,11111222,11111222' 
TCOON,ioos:station:TCOON:031:1,2010-08-08T02:00:00Z,28.4073,-96.7122,0.0,6.2,126.0,7.3,'11111222,11111222,11111222' 
TCOON,ioos:station:TCOON:031:1,2010-08-08T03:00:00Z,28.4073,-96.7122,0.0,6.2,130.0,7.7,'1111122,1111122,1111122' 
TCOON,ioos:station:TCOON:031:1,2010-08-08T04:00:00Z,28.4073,-96.7122,0.0,7.6,134.0,8.9,'11111222,11111222,11111222' 
TCOON,ioos:station:TCOON:031:1,2010-08-08T05:00:00Z,28.4073,-96.7122,0.0,8.2,140.0,9.8,'1111122,1111122,1111122' 
TCOON,ioos:station:TCOON:031:1,2010-08-08T06:00:00Z,28.4073,-96.7122,0.0,7.9,135.0,9.6,'11111222,11111222,11111222' 
TCOON,ioos:station:TCOON:031:1,2010-08-08T07:00:00Z,28.4073,-96.7122,0.0,7.9,148.0,9.4,'11111222,11111222,11111222' 
TCOON,ioos:station:TCOON:031:1,2010-08-08T08:00:00Z,28.4073,-96.7122,0.0,8.1,148.0,10.1,'11111222,11111222,11111222' 
TCOON,ioos:station:TCOON:031:1,2010-08-08T09:00:00Z,28.4073,-96.7122,0.0,7.7,169.0,8.8,'11111222,11111222,11111222' 
TCOON,ioos:station:TCOON:031:1,2010-08-08T10:00:00Z,28.4073,-96.7122,0.0,6.2,200.0,7.2,'1111122,1111122,1111122' 
TCOON,ioos:station:TCOON:031:1,2010-08-08T11:00:00Z,28.4073,-96.7122,0.0,4.6,200.0,5.1,'1111122,1111122,1111122' 
TCOON,ioos:station:TCOON:031:1,2010-08-08T12:00:00Z,28.4073,-96.7122,0.0,5.7,180.0,7.2,'1111122,1111122,1111122' 
TCOON,ioos:station:TCOON:031:1,2010-08-08T13:00:00Z,28.4073,-96.7122,0.0,4.1,140.0,5.1,'1111122,1111122,1111122' 
TCOON,ioos:station:TCOON:031:1,2010-08-08T14:00:00Z,28.4073,-96.7122,0.0,5.7,130.0,6.2,'1111122,1111122,1111122' 
TCOON,ioos:station:TCOON:031:1,2010-08-08T15:00:00Z,28.4073,-96.7122,0.0,5.9,150.0,6.6,'11111222,11111222,11111222' 
TCOON,ioos:station:TCOON:031:1,2010-08-08T16:00:00Z,28.4073,-96.7122,0.0,4.1,150.0,4.6,'1111122,1111122,1111122' 
TCOON,ioos:station:TCOON:031:1,2010-08-08T17:00:00Z,28.4073,-96.7122,0.0,6.4,143.0,7.2,'11111222,11111222,11111222' 
TCOON,ioos:station:TCOON:031:1,2010-08-08T18:00:00Z,28.4073,-96.7122,0.0,6.5,145.0,7.8,'11111222,11111222,11111222' 
TCOON,ioos:station:TCOON:031:1,2010-08-08T19:00:00Z,28.4073,-96.7122,0.0,6.4,146.0,7.1,'11111222,11111222,11111222' 
TCOON,ioos:station:TCOON:031:1,2010-08-08T20:00:00Z,28.4073,-96.7122,0.0,6.0,145.0,6.9,'11111222,11111222,11111222' 
TCOON,ioos:station:TCOON:031:1,2010-08-08T21:00:00Z,28.4073,-96.7122,0.0,6.2,140.0,6.7,'1111122,1111122,1111122' 
TCOON,ioos:station:TCOON:031:1,2010-08-08T22:00:00Z,28.4073,-96.7122,0.0,6.9,133.0,8.3,'11111222,11111222,11111222' 
TCOON,ioos:station:TCOON:031:1,2010-08-08T23:00:00Z,28.4073,-96.7122,0.0,6.2,131.0,8.2,'11111222,11111222,11111222' 
TCOON,ioos:station:TCOON:031:1,2010-08-09T00:00:00Z,28.4073,-96.7122,0.0,6.2,125.0,7.5,'11111222,11111222,11111222' 
TCOON,ioos:station:TCOON:031:1,2010-08-09T01:00:00Z,28.4073,-96.7122,0.0,5.8,110.0,7.0,'11111222,11111222,11111222' 
TCOON,ioos:station:TCOON:031:1,2010-08-09T02:00:00Z,28.4073,-96.7122,0.0,4.6,110.0,5.7,'1111122,1111122,1111122' 
TCOON,ioos:station:TCOON:031:1,2010-08-09T03:00:00Z,28.4073,-96.7122,0.0,5.1,113.0,5.9,'11111222,11111222,11111222' 
TCOON,ioos:station:TCOON:031:1,2010-08-09T04:00:00Z,28.4073,-96.7122,0.0,4.6,111.0,5.8,'11111222,11111222,11111222' 
TCOON,ioos:station:TCOON:031:1,2010-08-09T05:00:00Z,28.4073,-96.7122,0.0,4.6,114.0,5.8,'11111222,11111222,11111222' 
TCOON,ioos:station:TCOON:031:1,2010-08-09T06:00:00Z,28.4073,-96.7122,0.0,5.3,116.0,6.4,'11111222,11111222,11111222' 
TCOON,ioos:station:TCOON:031:1,2010-08-09T07:00:00Z,28.4073,-96.7122,0.0,5.8,133.0,7.1,'11111222,11111222,11111222' 
TCOON,ioos:station:TCOON:031:1,2010-08-09T08:00:00Z,28.4073,-96.7122,0.0,7.3,139.0,8.4,'11111222,11111222,11111222' 
TCOON,ioos:station:TCOON:031:1,2010-08-09T09:00:00Z,28.4073,-96.7122,0.0,7.1,146.0,8.9,'11111222,11111222,11111222' 
TCOON,ioos:station:TCOON:031:1,2010-08-09T10:00:00Z,28.4073,-96.7122,0.0,6.7,144.0,7.5,'11111222,11111222,11111222' 
TCOON,ioos:station:TCOON:031:1,2010-08-09T11:00:00Z,28.4073,-96.7122,0.0,7.0,140.0,7.6,'11111222,11111222,11111222' 
TCOON,ioos:station:TCOON:031:1,2010-08-09T12:00:00Z,28.4073,-96.7122,0.0,5.8,137.0,6.7,'11111222,11111222,11111222' 
TCOON,ioos:station:TCOON:031:1,2010-08-09T13:00:00Z,28.4073,-96.7122,0.0,3.6,160.0,4.1,'1111122,1111122,1111122' 
TCOON,ioos:station:TCOON:031:1,2010-08-09T14:00:00Z,28.4073,-96.7122,0.0,3.4,140.0,4.0,'11111222,11111222,11111222' 
TCOON,ioos:station:TCOON:031:1,2010-08-09T15:00:00Z,28.4073,-96.7122,0.0,2.9,165.0,3.3,'11111222,11111222,11111222' 
TCOON,ioos:station:TCOON:031:1,2010-08-09T16:00:00Z,28.4073,-96.7122,0.0,3.3,184.0,3.8,'11111222,11111222,11111222' 